Time,TemperatureF,DewpointF,PressureIn,WindDirection,WindDirectionDegrees,WindSpeedMPH,WindSpeedGustMPH,Humidity,HourlyPrecipIn,Conditions,Clouds,dailyrainin,SoftwareType,DateUTC
2013-12-11 00:00:00,11.1,3.7,30.27,WSW,248,0.0,0.0,72,0.00,,,0.06,WUHU216HW,2013-12-11 05:00:00,
2013-12-11 00:05:00,11.1,3.7,30.27,WSW,248,0.0,0.0,72,0.00,,,0.00,WUHU216HW,2013-12-11 05:05:00,
2013-12-11 00:10:00,10.9,3.5,30.27,WSW,248,0.0,0.0,72,0.00,,,0.00,WUHU216HW,2013-12-11 05:10:00,
2013-12-11 00:15:00,10.7,3.4,30.27,WSW,248,0.0,0.0,72,0.00,,,0.00,WUHU216HW,2013-12-11 05:15:00,
2013-12-11 00:20:00,10.7,3.4,30.27,WSW,248,0.0,0.0,72,0.00,,,0.00,WUHU216HW,2013-12-11 05:20:00,
2013-12-11 00:25:00,10.5,3.2,30.27,WSW,248,0.0,0.0,72,0.00,,,0.00,WUHU216HW,2013-12-11 05:25:00,
2013-12-11 00:30:00,10.5,3.2,30.27,WSW,248,0.0,0.0,72,0.00,,,0.00,WUHU216HW,2013-12-11 05:30:00,
2013-12-11 00:35:00,10.4,3.0,30.27,WSW,248,0.0,0.0,72,0.00,,,0.00,WUHU216HW,2013-12-11 05:35:00,
2013-12-11 00:40:00,10.2,2.8,30.27,WSW,248,0.0,0.0,72,0.00,,,0.00,WUHU216HW,2013-12-11 05:40:00,
2013-12-11 00:45:00,10.2,3.1,30.27,WSW,248,0.0,0.0,73,0.00,,,0.00,WUHU216HW,2013-12-11 05:45:00,
2013-12-11 00:50:00,10.2,3.1,30.27,WSW,248,0.0,0.0,73,0.00,,,0.00,WUHU216HW,2013-12-11 05:50:00,
2013-12-11 00:55:00,10.0,3.0,30.27,WSW,248,0.0,0.0,73,0.00,,,0.00,WUHU216HW,2013-12-11 05:55:00,
2013-12-11 01:00:00,10.0,3.0,30.28,WSW,248,0.0,0.0,73,0.00,,,0.00,WUHU216HW,2013-12-11 06:00:00,
2013-12-11 01:05:00,9.6,2.4,30.27,WSW,248,0.0,0.0,72,0.00,,,0.00,WUHU216HW,2013-12-11 06:05:00,
2013-12-11 01:10:00,9.6,2.4,30.27,WSW,248,0.0,0.0,72,0.00,,,0.00,WUHU216HW,2013-12-11 06:10:00,
2013-12-11 01:15:00,9.6,2.4,30.27,WSW,248,0.0,0.0,72,0.00,,,0.00,WUHU216HW,2013-12-11 06:15:00,
2013-12-11 01:20:00,9.5,2.2,30.27,WSW,248,0.0,0.0,72,0.00,,,0.00,WUHU216HW,2013-12-11 06:20:00,
2013-12-11 01:25:00,9.5,2.5,30.26,WSW,248,0.0,0.0,73,0.00,,,0.00,WUHU216HW,2013-12-11 06:25:00,
2013-12-11 01:30:00,9.5,2.5,30.26,WSW,248,0.0,0.0,73,0.00,,,0.00,WUHU216HW,2013-12-11 06:30:00,
2013-12-11 01:35:00,9.3,2.3,30.26,WSW,248,0.0,0.0,73,0.00,,,0.00,WUHU216HW,2013-12-11 06:35:00,
2013-12-11 01:40:00,9.3,2.0,30.26,WSW,248,0.0,0.0,72,0.00,,,0.00,WUHU216HW,2013-12-11 06:40:00,
2013-12-11 01:45:00,9.1,1.9,30.25,WSW,248,0.0,0.0,72,0.00,,,0.00,WUHU216HW,2013-12-11 06:45:00,
2013-12-11 01:50:00,8.9,2.0,30.26,WSW,248,0.0,0.0,73,0.00,,,0.00,WUHU216HW,2013-12-11 06:50:00,
2013-12-11 01:55:00,8.7,1.8,30.26,WSW,248,0.0,0.0,73,0.00,,,0.00,WUHU216HW,2013-12-11 06:55:00,
2013-12-11 02:00:00,8.7,1.8,30.26,WSW,248,0.0,0.0,73,0.00,,,0.00,WUHU216HW,2013-12-11 07:00:00,
2013-12-11 02:05:00,8.6,1.7,30.26,WSW,248,0.0,0.0,73,0.00,,,0.00,WUHU216HW,2013-12-11 07:05:00,
2013-12-11 02:10:00,8.6,1.7,30.26,WSW,248,0.0,0.0,73,0.00,,,0.00,WUHU216HW,2013-12-11 07:10:00,
2013-12-11 02:15:00,8.4,1.5,30.26,WSW,248,0.0,0.0,73,0.00,,,0.00,WUHU216HW,2013-12-11 07:15:00,
2013-12-11 02:20:00,8.4,1.5,30.26,WSW,248,0.0,0.0,73,0.00,,,0.00,WUHU216HW,2013-12-11 07:20:00,
2013-12-11 02:25:00,8.4,1.5,30.27,WSW,248,0.0,0.0,73,0.00,,,0.00,WUHU216HW,2013-12-11 07:25:00,
2013-12-11 02:30:00,8.4,1.5,30.27,WSW,248,0.0,0.0,73,0.00,,,0.00,WUHU216HW,2013-12-11 07:30:00,
2013-12-11 02:35:00,8.4,1.5,30.27,WSW,248,0.0,0.0,73,0.00,,,0.00,WUHU216HW,2013-12-11 07:35:00,
2013-12-11 02:40:00,8.4,1.5,30.26,WSW,248,0.0,0.0,73,0.00,,,0.00,WUHU216HW,2013-12-11 07:40:00,
2013-12-11 02:45:00,8.2,1.3,30.27,WSW,248,0.0,0.0,73,0.00,,,0.00,WUHU216HW,2013-12-11 07:45:00,
2013-12-11 02:50:00,8.2,1.3,30.27,WSW,248,0.0,0.0,73,0.00,,,0.00,WUHU216HW,2013-12-11 07:50:00,
2013-12-11 02:55:00,8.2,1.3,30.27,WSW,248,0.0,0.0,73,0.00,,,0.00,WUHU216HW,2013-12-11 07:55:00,
2013-12-11 03:00:00,8.0,1.1,30.27,WSW,248,0.0,0.0,73,0.00,,,0.00,WUHU216HW,2013-12-11 08:00:00,
2013-12-11 03:05:00,7.8,1.0,30.27,WSW,248,0.0,0.0,73,0.00,,,0.00,WUHU216HW,2013-12-11 08:05:00,
2013-12-11 03:10:00,7.7,0.8,30.27,WSW,248,0.0,0.0,73,0.00,,,0.00,WUHU216HW,2013-12-11 08:10:00,
2013-12-11 03:15:00,7.7,0.8,30.27,WSW,248,0.0,0.0,73,0.00,,,0.00,WUHU216HW,2013-12-11 08:15:00,
2013-12-11 03:20:00,7.7,0.8,30.27,WSW,248,0.0,0.0,73,0.00,,,0.00,WUHU216HW,2013-12-11 08:20:00,
2013-12-11 03:25:00,7.5,0.6,30.27,WSW,248,0.0,0.0,73,0.00,,,0.00,WUHU216HW,2013-12-11 08:25:00,
2013-12-11 03:30:00,7.5,0.6,30.27,WSW,248,0.0,0.0,73,0.00,,,0.00,WUHU216HW,2013-12-11 08:30:00,
2013-12-11 03:35:00,7.5,0.6,30.27,WSW,248,0.0,0.0,73,0.00,,,0.00,WUHU216HW,2013-12-11 08:35:00,
2013-12-11 03:40:00,7.3,0.4,30.27,WSW,248,0.0,0.0,73,0.00,,,0.00,WUHU216HW,2013-12-11 08:40:00,
2013-12-11 03:45:00,7.3,0.4,30.27,WSW,248,0.0,0.0,73,0.00,,,0.00,WUHU216HW,2013-12-11 08:45:00,
2013-12-11 03:50:00,7.3,0.4,30.27,WSW,248,0.0,0.0,73,0.00,,,0.00,WUHU216HW,2013-12-11 08:50:00,
2013-12-11 03:55:00,7.3,0.4,30.27,WSW,248,0.0,0.0,73,0.00,,,0.00,WUHU216HW,2013-12-11 08:55:00,
2013-12-11 04:00:00,7.1,0.2,30.27,WSW,248,0.0,0.0,73,0.00,,,0.00,WUHU216HW,2013-12-11 09:00:00,
2013-12-11 04:05:00,7.1,0.2,30.27,WSW,248,0.0,0.0,73,0.00,,,0.00,WUHU216HW,2013-12-11 09:05:00,
2013-12-11 04:10:00,6.9,0.1,30.27,WSW,248,0.0,0.0,73,0.00,,,0.00,WUHU216HW,2013-12-11 09:10:00,
2013-12-11 04:15:00,6.9,0.1,30.27,WSW,248,0.0,0.0,73,0.00,,,0.00,WUHU216HW,2013-12-11 09:15:00,
2013-12-11 04:20:00,6.9,0.3,30.27,WSW,248,0.0,0.0,74,0.00,,,0.00,WUHU216HW,2013-12-11 09:20:00,
2013-12-11 04:25:00,6.9,0.3,30.27,WSW,248,0.0,0.0,74,0.00,,,0.00,WUHU216HW,2013-12-11 09:25:00,
2013-12-11 04:31:00,6.9,0.2,30.26,WSW,248,0.0,0.0,74,0.00,,,0.00,WUHU216HW,2013-12-11 09:31:00,
2013-12-11 04:36:00,6.6,0.0,30.27,WSW,248,0.0,0.0,74,0.00,,,0.00,WUHU216HW,2013-12-11 09:36:00,
2013-12-11 04:41:00,6.6,0.0,30.27,WSW,248,0.0,0.0,74,0.00,,,0.00,WUHU216HW,2013-12-11 09:41:00,
2013-12-11 04:46:00,6.6,0.0,30.27,WSW,248,0.0,0.0,74,0.00,,,0.00,WUHU216HW,2013-12-11 09:46:00,
2013-12-11 04:51:00,6.6,0.0,30.26,WSW,248,0.0,0.0,74,0.00,,,0.00,WUHU216HW,2013-12-11 09:51:00,
2013-12-11 04:56:00,6.6,0.0,30.26,WSW,248,0.0,0.0,74,0.00,,,0.00,WUHU216HW,2013-12-11 09:56:00,
2013-12-11 05:01:00,6.4,-0.1,30.25,WSW,248,0.0,0.0,74,0.00,,,0.00,WUHU216HW,2013-12-11 10:01:00,
2013-12-11 05:06:00,6.4,-0.1,30.25,WSW,248,0.0,0.0,74,0.00,,,0.00,WUHU216HW,2013-12-11 10:06:00,
2013-12-11 05:11:00,6.4,-0.1,30.25,WSW,248,0.0,0.0,74,0.00,,,0.00,WUHU216HW,2013-12-11 10:11:00,
2013-12-11 05:16:00,6.2,-0.5,30.25,WSW,248,0.0,0.0,74,0.00,,,0.00,WUHU216HW,2013-12-11 10:16:00,
2013-12-11 05:21:00,6.0,-0.5,30.25,WSW,248,0.0,0.0,74,0.00,,,0.00,WUHU216HW,2013-12-11 10:21:00,
2013-12-11 05:26:00,6.0,-0.5,30.25,WSW,248,0.0,0.0,74,0.00,,,0.00,WUHU216HW,2013-12-11 10:26:00,
2013-12-11 05:31:00,6.0,-0.5,30.25,WSW,248,0.0,0.0,74,0.00,,,0.00,WUHU216HW,2013-12-11 10:31:00,
2013-12-11 05:36:00,5.9,-0.9,30.25,WSW,248,0.0,0.0,73,0.00,,,0.00,WUHU216HW,2013-12-11 10:36:00,
2013-12-11 05:41:00,5.7,-1.1,30.25,WSW,248,0.0,0.0,73,0.00,,,0.00,WUHU216HW,2013-12-11 10:41:00,
2013-12-11 05:46:00,5.7,-1.1,30.25,WSW,248,0.0,0.0,73,0.00,,,0.00,WUHU216HW,2013-12-11 10:46:00,
2013-12-11 05:51:00,5.5,-1.3,30.26,WSW,248,0.0,0.0,73,0.00,,,0.00,WUHU216HW,2013-12-11 10:51:00,
2013-12-11 05:56:00,5.5,-1.0,30.26,WSW,248,0.0,0.0,74,0.00,,,0.00,WUHU216HW,2013-12-11 10:56:00,
2013-12-11 06:01:00,5.5,-1.0,30.25,WSW,248,0.0,0.0,74,0.00,,,0.00,WUHU216HW,2013-12-11 11:01:00,
2013-12-11 06:06:00,5.5,-1.0,30.25,WSW,248,0.0,0.0,74,0.00,,,0.00,WUHU216HW,2013-12-11 11:06:00,
2013-12-11 06:11:00,5.5,-1.0,30.26,WSW,248,0.0,0.0,74,0.00,,,0.00,WUHU216HW,2013-12-11 11:11:00,
2013-12-11 06:16:00,5.5,-1.0,30.26,WSW,248,0.0,0.0,74,0.00,,,0.00,WUHU216HW,2013-12-11 11:16:00,
2013-12-11 06:21:00,5.5,-1.0,30.26,WSW,248,0.0,0.0,74,0.00,,,0.00,WUHU216HW,2013-12-11 11:21:00,
2013-12-11 06:26:00,5.5,-1.0,30.25,WSW,248,0.0,0.0,74,0.00,,,0.00,WUHU216HW,2013-12-11 11:26:00,
2013-12-11 06:31:00,5.3,-1.2,30.25,WSW,248,0.0,0.0,74,0.00,,,0.00,WUHU216HW,2013-12-11 11:31:00,
2013-12-11 06:36:00,5.3,-1.2,30.25,WSW,248,0.0,0.0,74,0.00,,,0.00,WUHU216HW,2013-12-11 11:36:00,
2013-12-11 06:41:00,5.1,-1.4,30.26,WSW,248,0.0,0.0,74,0.00,,,0.00,WUHU216HW,2013-12-11 11:41:00,
2013-12-11 06:46:00,5.1,-1.4,30.26,WSW,248,0.0,0.0,74,0.00,,,0.00,WUHU216HW,2013-12-11 11:46:00,
2013-12-11 06:51:00,5.1,-1.4,30.26,WSW,248,0.0,0.0,74,0.00,,,0.00,WUHU216HW,2013-12-11 11:51:00,
2013-12-11 06:56:00,5.1,-1.4,30.26,WSW,248,0.0,0.0,74,0.00,,,0.00,WUHU216HW,2013-12-11 11:56:00,
2013-12-11 07:01:00,5.1,-1.4,30.26,WSW,248,0.0,0.0,74,0.00,,,0.00,WUHU216HW,2013-12-11 12:01:00,
2013-12-11 07:06:00,5.0,-1.5,30.26,WSW,248,0.0,0.0,74,0.00,,,0.00,WUHU216HW,2013-12-11 12:06:00,
2013-12-11 07:11:00,5.0,-1.5,30.26,WSW,248,0.0,0.0,74,0.00,,,0.00,WUHU216HW,2013-12-11 12:11:00,
2013-12-11 07:16:00,4.8,-1.5,30.26,WSW,248,0.0,0.0,74,0.00,,,0.00,WUHU216HW,2013-12-11 12:16:00,
2013-12-11 07:21:00,4.8,-1.7,30.27,WSW,248,0.0,0.0,74,0.00,,,0.00,WUHU216HW,2013-12-11 12:21:00,
2013-12-11 07:26:00,4.8,-1.7,30.27,WSW,248,0.0,0.0,74,0.00,,,0.00,WUHU216HW,2013-12-11 12:26:00,
2013-12-11 07:31:00,4.8,-1.7,30.27,WSW,248,0.0,0.0,74,0.00,,,0.00,WUHU216HW,2013-12-11 12:31:00,
2013-12-11 07:36:00,4.8,-1.7,30.27,WSW,248,0.0,0.0,74,0.00,,,0.00,WUHU216HW,2013-12-11 12:36:00,
2013-12-11 07:41:00,4.8,-1.7,30.27,WSW,248,0.0,0.0,74,0.00,,,0.00,WUHU216HW,2013-12-11 12:41:00,
2013-12-11 07:46:00,4.6,-1.9,30.27,WSW,248,0.0,0.0,74,0.00,,,0.00,WUHU216HW,2013-12-11 12:46:00,
2013-12-11 07:51:00,4.6,-1.9,30.27,WSW,248,0.0,0.0,74,0.00,,,0.00,WUHU216HW,2013-12-11 12:51:00,
2013-12-11 07:56:00,4.6,-1.9,30.27,WSW,248,0.0,0.0,74,0.00,,,0.00,WUHU216HW,2013-12-11 12:56:00,
2013-12-11 08:01:00,4.6,-1.9,30.27,WSW,248,0.0,0.0,74,0.00,,,0.00,WUHU216HW,2013-12-11 13:01:00,
2013-12-11 08:06:00,4.4,-2.1,30.27,WSW,248,0.0,0.0,74,0.00,,,0.00,WUHU216HW,2013-12-11 13:06:00,
2013-12-11 08:11:00,4.4,-2.1,30.27,WSW,248,0.0,0.0,74,0.00,,,0.00,WUHU216HW,2013-12-11 13:11:00,
2013-12-11 08:16:00,4.4,-2.1,30.27,WSW,248,0.0,0.0,74,0.00,,,0.00,WUHU216HW,2013-12-11 13:16:00,
2013-12-11 08:21:00,4.4,-2.1,30.27,WSW,248,0.0,0.0,74,0.00,,,0.00,WUHU216HW,2013-12-11 13:21:00,
2013-12-11 08:26:00,4.6,-1.9,30.27,WSW,248,0.0,0.0,74,0.00,,,0.00,WUHU216HW,2013-12-11 13:26:00,
2013-12-11 08:31:00,4.6,-1.9,30.27,WSW,248,0.0,0.0,74,0.00,,,0.00,WUHU216HW,2013-12-11 13:31:00,
2013-12-11 08:36:00,4.6,-1.9,30.27,WSW,248,0.0,0.0,74,0.00,,,0.00,WUHU216HW,2013-12-11 13:36:00,
2013-12-11 08:41:00,4.6,-1.9,30.27,WSW,248,0.0,0.0,74,0.00,,,0.00,WUHU216HW,2013-12-11 13:41:00,
2013-12-11 08:46:00,4.8,-1.7,30.27,WSW,248,0.0,0.0,74,0.00,,,0.00,WUHU216HW,2013-12-11 13:46:00,
2013-12-11 08:51:00,4.8,-1.7,30.27,WSW,248,0.0,0.0,74,0.00,,,0.00,WUHU216HW,2013-12-11 13:51:00,
2013-12-11 08:56:00,5.1,-1.1,30.27,WSW,248,0.0,0.0,75,0.00,,,0.00,WUHU216HW,2013-12-11 13:56:00,
2013-12-11 09:01:00,5.5,-0.7,30.27,WSW,248,0.0,0.0,75,0.00,,,0.00,WUHU216HW,2013-12-11 14:01:00,
2013-12-11 09:06:00,5.7,-0.5,30.27,WSW,248,0.0,0.0,75,0.00,,,0.00,WUHU216HW,2013-12-11 14:06:00,
2013-12-11 09:11:00,6.0,-0.2,30.27,WSW,248,0.0,0.0,75,0.00,,,0.00,WUHU216HW,2013-12-11 14:11:00,
2013-12-11 09:16:00,6.0,-0.2,30.27,WSW,248,0.0,0.0,75,0.00,,,0.00,WUHU216HW,2013-12-11 14:16:00,
2013-12-11 09:21:00,6.4,0.1,30.27,WSW,248,0.0,0.0,75,0.00,,,0.00,WUHU216HW,2013-12-11 14:21:00,
2013-12-11 09:26:00,6.8,0.5,30.27,WSW,248,0.0,0.0,75,0.00,,,0.00,WUHU216HW,2013-12-11 14:26:00,
2013-12-11 09:31:00,7.1,1.1,30.27,WSW,248,0.0,0.0,76,0.00,,,0.00,WUHU216HW,2013-12-11 14:31:00,
2013-12-11 09:36:00,7.5,1.5,30.28,WSW,248,0.0,0.0,76,0.00,,,0.00,WUHU216HW,2013-12-11 14:36:00,
2013-12-11 09:41:00,7.8,1.8,30.28,WSW,248,0.0,0.0,76,0.00,,,0.00,WUHU216HW,2013-12-11 14:41:00,
2013-12-11 09:46:00,8.4,2.4,30.28,WSW,248,0.0,0.0,76,0.00,,,0.00,WUHU216HW,2013-12-11 14:46:00,
2013-12-11 09:51:00,8.9,2.9,30.28,WSW,248,0.0,0.0,76,0.00,,,0.00,WUHU216HW,2013-12-11 14:51:00,
2013-12-11 09:56:00,9.3,3.5,30.28,WSW,248,0.0,0.0,77,0.00,,,0.00,WUHU216HW,2013-12-11 14:56:00,
2013-12-11 10:01:00,10.2,4.3,30.28,WSW,248,0.0,0.0,77,0.00,,,0.00,WUHU216HW,2013-12-11 15:01:00,
2013-12-11 10:06:00,10.5,4.6,30.28,WSW,248,0.0,0.0,77,0.00,,,0.00,WUHU216HW,2013-12-11 15:06:00,
2013-12-11 10:11:00,11.1,5.2,30.28,WSW,248,0.0,0.0,77,0.00,,,0.00,WUHU216HW,2013-12-11 15:11:00,
2013-12-11 10:16:00,12.0,6.1,30.28,WSW,248,0.0,0.0,77,0.00,,,0.00,WUHU216HW,2013-12-11 15:16:00,
2013-12-11 10:21:00,12.5,6.9,30.29,WSW,248,0.0,0.0,78,0.00,,,0.00,WUHU216HW,2013-12-11 15:21:00,
2013-12-11 10:26:00,12.9,7.3,30.29,WSW,248,0.0,0.0,78,0.00,,,0.00,WUHU216HW,2013-12-11 15:26:00,
2013-12-11 10:31:00,13.8,8.2,30.29,WSW,248,0.0,0.0,78,0.00,,,0.00,WUHU216HW,2013-12-11 15:31:00,
2013-12-11 10:36:00,14.5,8.9,30.29,WNW,293,0.0,0.0,78,0.00,,,0.00,WUHU216HW,2013-12-11 15:36:00,
2013-12-11 10:41:00,15.6,10.2,30.29,NW,315,0.0,0.0,79,0.00,,,0.00,WUHU216HW,2013-12-11 15:41:00,
2013-12-11 10:46:00,16.3,10.9,30.29,SW,225,0.0,0.0,79,0.00,,,0.00,WUHU216HW,2013-12-11 15:46:00,
2013-12-11 10:51:00,16.8,11.4,30.29,NW,315,0.0,0.0,79,0.00,,,0.00,WUHU216HW,2013-12-11 15:51:00,
2013-12-11 10:56:00,18.1,12.9,30.29,SW,225,2.9,2.9,80,0.00,,,0.00,WUHU216HW,2013-12-11 15:56:00,
2013-12-11 11:01:00,19.2,14.2,30.28,SSE,158,0.0,2.9,81,0.00,,,0.00,WUHU216HW,2013-12-11 16:01:00,
2013-12-11 11:06:00,20.1,15.1,30.28,SSE,158,0.0,2.9,81,0.00,,,0.00,WUHU216HW,2013-12-11 16:06:00,
2013-12-11 11:11:00,21.7,16.7,30.27,NW,315,0.0,0.0,81,0.00,,,0.00,WUHU216HW,2013-12-11 16:11:00,
2013-12-11 11:16:00,22.8,17.8,30.27,WNW,293,0.0,0.0,81,0.00,,,0.00,WUHU216HW,2013-12-11 16:16:00,
2013-12-11 11:21:00,23.5,18.5,30.27,SE,135,0.0,3.1,81,0.00,,,0.00,WUHU216HW,2013-12-11 16:21:00,
2013-12-11 11:26:00,24.9,20.0,30.27,SSW,203,5.3,6.0,81,0.00,,,0.00,WUHU216HW,2013-12-11 16:26:00,
2013-12-11 11:31:00,25.5,20.4,30.27,West,270,8.9,8.9,81,0.00,,,0.00,WUHU216HW,2013-12-11 16:31:00,
2013-12-11 11:36:00,26.2,21.1,30.27,SSE,158,1.3,8.9,81,0.00,,,0.00,WUHU216HW,2013-12-11 16:36:00,
2013-12-11 11:41:00,27.1,22.0,30.27,South,180,0.0,5.3,81,0.00,,,0.00,WUHU216HW,2013-12-11 16:41:00,
2013-12-11 11:46:00,27.3,21.9,30.27,SE,135,0.0,0.0,80,0.00,,,0.00,WUHU216HW,2013-12-11 16:46:00,
2013-12-11 11:51:00,28.0,22.6,30.26,SE,135,0.0,7.3,80,0.00,,,0.00,WUHU216HW,2013-12-11 16:51:00,
2013-12-11 11:56:00,28.5,23.1,30.26,South,180,7.6,7.6,80,0.00,,,0.00,WUHU216HW,2013-12-11 16:56:00,
2013-12-11 12:01:00,29.1,23.7,30.25,SE,135,0.0,7.6,80,0.00,,,0.00,WUHU216HW,2013-12-11 17:01:00,
2013-12-11 12:06:00,29.6,23.9,30.24,SSE,158,0.0,7.6,79,0.00,,,0.00,WUHU216HW,2013-12-11 17:06:00,
2013-12-11 12:11:00,30.2,24.4,30.24,SE,135,0.0,6.2,79,0.00,,,0.00,WUHU216HW,2013-12-11 17:11:00,
2013-12-11 12:16:00,30.7,24.6,30.23,SE,135,0.0,6.4,78,0.00,,,0.00,WUHU216HW,2013-12-11 17:16:00,
2013-12-11 12:21:00,31.1,25.0,30.22,SSW,203,1.3,6.4,78,0.00,,,0.00,WUHU216HW,2013-12-11 17:21:00,
2013-12-11 12:26:00,31.6,25.5,30.22,South,180,8.2,8.2,78,0.00,,,0.00,WUHU216HW,2013-12-11 17:26:00,
2013-12-11 12:31:00,31.8,25.4,30.23,SSE,158,7.8,8.2,77,0.00,,,0.00,WUHU216HW,2013-12-11 17:31:00,
2013-12-11 12:36:00,32.1,25.7,30.23,SSW,203,0.0,8.2,77,0.00,,,0.00,WUHU216HW,2013-12-11 17:36:00,
2013-12-11 12:41:00,32.5,25.7,30.23,SW,225,2.4,2.4,76,0.02,,,0.01,WUHU216HW,2013-12-11 17:41:00,
2013-12-11 12:46:00,32.7,25.9,30.23,SSW,203,7.8,12.5,76,0.02,,,0.01,WUHU216HW,2013-12-11 17:46:00,
2013-12-11 12:51:00,33.0,25.9,30.24,West,270,0.0,12.5,75,0.02,,,0.01,WUHU216HW,2013-12-11 17:51:00,
2013-12-11 12:56:00,33.0,25.6,30.23,WSW,248,10.2,12.9,74,0.02,,,0.01,WUHU216HW,2013-12-11 17:56:00,
2013-12-11 13:01:00,33.2,25.7,30.24,SW,225,8.9,12.9,74,0.02,,,0.01,WUHU216HW,2013-12-11 18:01:00,
2013-12-11 13:06:00,33.2,25.4,30.24,West,270,4.6,13.6,73,0.04,,,0.04,WUHU216HW,2013-12-11 18:06:00,
2013-12-11 13:11:00,33.2,25.4,30.24,WNW,293,0.0,13.6,73,0.04,,,0.04,WUHU216HW,2013-12-11 18:11:00,
2013-12-11 13:16:00,33.4,25.6,30.24,SW,225,0.0,8.7,73,0.04,,,0.04,WUHU216HW,2013-12-11 18:16:00,
2013-12-11 13:21:00,33.4,25.6,30.24,NNW,338,0.0,12.7,73,0.04,,,0.04,WUHU216HW,2013-12-11 18:21:00,
2013-12-11 13:26:00,33.2,25.1,30.24,WSW,248,9.8,12.7,72,0.04,,,0.04,WUHU216HW,2013-12-11 18:26:00,
2013-12-11 13:31:00,33.0,24.9,30.24,West,270,5.8,9.8,72,0.04,,,0.04,WUHU216HW,2013-12-11 18:31:00,
2013-12-11 13:36:00,32.9,24.8,30.24,SW,225,6.2,9.8,72,0.02,,,0.04,WUHU216HW,2013-12-11 18:36:00,
2013-12-11 13:41:00,32.5,24.4,30.24,WSW,248,0.0,10.5,72,0.02,,,0.04,WUHU216HW,2013-12-11 18:41:00,
2013-12-11 13:46:00,32.5,24.1,30.24,SE,135,4.6,10.5,71,0.02,,,0.04,WUHU216HW,2013-12-11 18:46:00,
2013-12-11 13:51:00,32.3,24.0,30.25,WNW,293,10.5,10.5,71,0.02,,,0.04,WUHU216HW,2013-12-11 18:51:00,
2013-12-11 13:56:00,32.3,24.3,30.25,NW,315,11.8,11.8,72,0.02,,,0.04,WUHU216HW,2013-12-11 18:56:00,
2013-12-11 14:01:00,32.1,24.1,30.25,West,270,6.2,11.8,72,0.02,,,0.04,WUHU216HW,2013-12-11 19:01:00,
2013-12-11 14:06:00,32.1,23.8,30.25,NW,315,9.8,11.8,71,0.00,,,0.04,WUHU216HW,2013-12-11 19:06:00,
2013-12-11 14:11:00,31.8,23.5,30.26,SW,225,6.7,10.0,71,0.00,,,0.04,WUHU216HW,2013-12-11 19:11:00,
2013-12-11 14:16:00,31.8,23.5,30.26,WSW,248,6.0,10.0,71,0.00,,,0.04,WUHU216HW,2013-12-11 19:16:00,
2013-12-11 14:21:00,31.8,23.5,30.26,WNW,293,3.3,6.7,71,0.00,,,0.04,WUHU216HW,2013-12-11 19:21:00,
2013-12-11 14:26:00,31.6,23.3,30.26,West,270,4.6,9.1,71,0.00,,,0.04,WUHU216HW,2013-12-11 19:26:00,
2013-12-11 14:31:00,31.6,23.3,30.26,SW,225,0.2,9.1,71,0.00,,,0.04,WUHU216HW,2013-12-11 19:31:00,
2013-12-11 14:36:00,31.6,23.3,30.26,West,270,6.7,6.9,71,0.00,,,0.04,WUHU216HW,2013-12-11 19:36:00,
2013-12-11 14:41:00,31.2,22.9,30.26,NW,315,0.0,10.5,71,0.00,,,0.04,WUHU216HW,2013-12-11 19:41:00,
2013-12-11 14:46:00,31.2,22.9,30.27,West,270,0.0,10.5,71,0.00,,,0.04,WUHU216HW,2013-12-11 19:46:00,
2013-12-11 14:51:00,31.1,22.7,30.27,WNW,293,2.6,6.0,71,0.00,,,0.04,WUHU216HW,2013-12-11 19:51:00,
2013-12-11 14:56:00,30.9,22.6,30.27,NW,315,7.6,8.9,71,0.00,,,0.04,WUHU216HW,2013-12-11 19:56:00,
2013-12-11 15:01:00,30.9,22.6,30.27,NNW,338,0.0,8.9,71,0.00,,,0.04,WUHU216HW,2013-12-11 20:01:00,
2013-12-11 15:06:00,30.9,22.6,30.27,WNW,293,6.9,8.9,71,0.00,,,0.04,WUHU216HW,2013-12-11 20:06:00,
2013-12-11 15:11:00,30.9,22.6,30.27,North,0,0.0,6.9,71,0.00,,,0.04,WUHU216HW,2013-12-11 20:11:00,
2013-12-11 15:16:00,31.1,22.7,30.27,NW,315,8.2,8.2,71,0.00,,,0.04,WUHU216HW,2013-12-11 20:16:00,
2013-12-11 15:21:00,31.1,22.7,30.27,NW,315,12.7,12.7,71,0.00,,,0.04,WUHU216HW,2013-12-11 20:21:00,
2013-12-11 15:26:00,30.9,22.6,30.27,WSW,248,8.9,12.7,71,0.00,,,0.04,WUHU216HW,2013-12-11 20:26:00,
2013-12-11 15:31:00,30.7,22.4,30.28,West,270,6.2,8.9,71,0.00,,,0.04,WUHU216HW,2013-12-11 20:31:00,
2013-12-11 15:36:00,30.7,22.4,30.28,West,270,8.5,8.9,71,0.00,,,0.04,WUHU216HW,2013-12-11 20:36:00,
2013-12-11 15:41:00,30.5,22.2,30.28,West,270,0.0,10.2,71,0.00,,,0.04,WUHU216HW,2013-12-11 20:41:00,
2013-12-11 15:46:00,30.5,22.2,30.28,West,270,6.4,10.2,71,0.00,,,0.04,WUHU216HW,2013-12-11 20:46:00,
2013-12-11 15:51:00,30.3,22.0,30.28,WNW,293,5.3,7.6,71,0.00,,,0.04,WUHU216HW,2013-12-11 20:51:00,
2013-12-11 15:56:00,30.3,22.0,30.28,WNW,293,0.0,9.3,71,0.00,,,0.04,WUHU216HW,2013-12-11 20:56:00,
2013-12-11 16:01:00,30.3,22.0,30.28,West,270,5.3,12.0,71,0.00,,,0.04,WUHU216HW,2013-12-11 21:01:00,
2013-12-11 16:06:00,30.3,22.0,30.28,NW,315,6.7,12.0,71,0.00,,,0.04,WUHU216HW,2013-12-11 21:06:00,
2013-12-11 16:11:00,30.3,22.0,30.29,West,270,11.8,11.8,71,0.00,,,0.04,WUHU216HW,2013-12-11 21:11:00,
2013-12-11 16:16:00,30.3,22.0,30.29,West,270,1.7,11.8,71,0.00,,,0.04,WUHU216HW,2013-12-11 21:16:00,
2013-12-11 16:21:00,30.3,22.0,30.29,WNW,293,6.4,11.8,71,0.00,,,0.04,WUHU216HW,2013-12-11 21:21:00,
2013-12-11 16:26:00,30.3,22.0,30.29,West,270,0.0,6.4,71,0.00,,,0.04,WUHU216HW,2013-12-11 21:26:00,
2013-12-11 16:32:00,30.3,22.0,30.30,West,270,11.6,11.6,71,0.00,,,0.04,WUHU216HW,2013-12-11 21:32:00,
2013-12-11 16:37:00,30.2,21.8,30.30,WSW,248,5.3,11.6,71,0.00,,,0.04,WUHU216HW,2013-12-11 21:37:00,
2013-12-11 16:42:00,30.0,21.7,30.30,West,270,0.0,5.8,71,0.00,,,0.04,WUHU216HW,2013-12-11 21:42:00,
2013-12-11 16:47:00,30.0,21.7,30.31,WNW,293,4.2,14.7,71,0.00,,,0.04,WUHU216HW,2013-12-11 21:47:00,
2013-12-11 16:52:00,30.0,21.7,30.31,West,270,11.4,14.7,71,0.00,,,0.04,WUHU216HW,2013-12-11 21:52:00,
2013-12-11 16:57:00,29.8,21.5,30.31,WNW,293,0.0,11.4,71,0.00,,,0.04,WUHU216HW,2013-12-11 21:57:00,
2013-12-11 17:02:00,29.6,21.3,30.32,WSW,248,0.0,8.0,71,0.00,,,0.04,WUHU216HW,2013-12-11 22:02:00,
2013-12-11 17:07:00,29.4,21.5,30.32,WSW,248,0.0,2.6,72,0.00,,,0.04,WUHU216HW,2013-12-11 22:07:00,
2013-12-11 17:12:00,29.4,21.5,30.32,SW,225,0.0,12.0,72,0.00,,,0.04,WUHU216HW,2013-12-11 22:12:00,
2013-12-11 17:17:00,29.3,21.3,30.33,SW,225,6.4,12.0,72,0.00,,,0.04,WUHU216HW,2013-12-11 22:17:00,
2013-12-11 17:22:00,29.1,21.2,30.33,WSW,248,3.5,6.4,72,0.00,,,0.04,WUHU216HW,2013-12-11 22:22:00,
2013-12-11 17:27:00,29.1,21.2,30.33,NW,315,2.4,6.2,72,0.00,,,0.04,WUHU216HW,2013-12-11 22:27:00,
2013-12-11 17:32:00,28.9,21.0,30.34,NW,315,0.0,6.7,72,0.00,,,0.04,WUHU216HW,2013-12-11 22:32:00,
2013-12-11 17:37:00,28.7,20.7,30.34,WNW,293,0.0,11.8,71,0.00,,,0.04,WUHU216HW,2013-12-11 22:37:00,
2013-12-11 17:42:00,28.5,20.4,30.34,West,270,0.0,11.8,71,0.00,,,0.04,WUHU216HW,2013-12-11 22:42:00,
2013-12-11 17:47:00,28.4,20.2,30.35,West,270,8.7,8.7,71,0.00,,,0.04,WUHU216HW,2013-12-11 22:47:00,
2013-12-11 17:52:00,28.2,20.0,30.34,West,270,4.0,8.7,71,0.00,,,0.04,WUHU216HW,2013-12-11 22:52:00,
2013-12-11 17:57:00,27.6,19.2,30.35,North,0,5.5,5.5,70,0.00,,,0.04,WUHU216HW,2013-12-11 22:57:00,
2013-12-11 18:02:00,27.6,19.2,30.35,WSW,248,0.0,11.1,70,0.00,,,0.04,WUHU216HW,2013-12-11 23:02:00,
2013-12-11 18:07:00,27.3,18.8,30.36,NW,315,3.5,13.1,70,0.00,,,0.04,WUHU216HW,2013-12-11 23:07:00,
2013-12-11 18:12:00,27.1,18.6,30.36,WSW,248,6.4,13.1,70,0.00,,,0.04,WUHU216HW,2013-12-11 23:12:00,
2013-12-11 18:17:00,26.7,17.9,30.36,West,270,3.5,8.9,69,0.00,,,0.04,WUHU216HW,2013-12-11 23:17:00,
2013-12-11 18:22:00,26.6,17.7,30.37,West,270,0.0,6.4,69,0.00,,,0.04,WUHU216HW,2013-12-11 23:22:00,
2013-12-11 18:27:00,26.4,17.6,30.37,NW,315,6.0,9.3,69,0.00,,,0.04,WUHU216HW,2013-12-11 23:27:00,
2013-12-11 18:32:00,26.2,17.4,30.37,WNW,293,5.8,9.3,69,0.00,,,0.04,WUHU216HW,2013-12-11 23:32:00,
2013-12-11 18:37:00,26.2,17.7,30.38,NW,315,0.0,6.0,70,0.00,,,0.04,WUHU216HW,2013-12-11 23:37:00,
2013-12-11 18:42:00,26.0,17.2,30.38,WNW,293,6.4,8.9,69,0.00,,,0.04,WUHU216HW,2013-12-11 23:42:00,
2013-12-11 18:47:00,25.8,17.4,30.38,NW,315,0.0,8.9,70,0.00,,,0.04,WUHU216HW,2013-12-11 23:47:00,
2013-12-11 18:52:00,25.7,17.2,30.38,NW,315,2.0,6.4,70,0.00,,,0.04,WUHU216HW,2013-12-11 23:52:00,
2013-12-11 18:57:00,25.7,17.2,30.38,NW,315,6.4,6.4,70,0.00,,,0.04,WUHU216HW,2013-12-11 23:57:00,
2013-12-11 19:02:00,25.5,17.3,30.38,NW,315,5.1,8.0,71,0.00,,,0.04,WUHU216HW,2013-12-12 00:02:00,
2013-12-11 19:07:00,25.5,17.3,30.38,WNW,293,0.6,8.0,71,0.00,,,0.04,WUHU216HW,2013-12-12 00:07:00,
2013-12-11 19:12:00,25.5,17.3,30.38,WSW,248,0.0,6.2,71,0.00,,,0.04,WUHU216HW,2013-12-12 00:12:00,
2013-12-11 19:17:00,25.5,17.6,30.39,WNW,293,6.9,6.9,72,0.00,,,0.04,WUHU216HW,2013-12-12 00:17:00,
2013-12-11 19:22:00,25.3,17.5,30.38,WNW,293,3.3,14.0,72,0.00,,,0.04,WUHU216HW,2013-12-12 00:22:00,
2013-12-11 19:27:00,25.1,17.3,30.39,WNW,293,0.0,14.0,72,0.00,,,0.04,WUHU216HW,2013-12-12 00:27:00,
2013-12-11 19:32:00,24.9,17.1,30.39,West,270,4.0,4.0,72,0.00,,,0.04,WUHU216HW,2013-12-12 00:32:00,
2013-12-11 19:37:00,24.9,17.1,30.40,NW,315,5.5,5.5,72,0.00,,,0.04,WUHU216HW,2013-12-12 00:37:00,
2013-12-11 19:42:00,24.6,16.8,30.40,West,270,2.4,5.5,72,0.00,,,0.04,WUHU216HW,2013-12-12 00:42:00,
2013-12-11 19:47:00,24.6,16.8,30.40,WSW,248,5.8,5.8,72,0.00,,,0.04,WUHU216HW,2013-12-12 00:47:00,
2013-12-11 19:52:00,24.4,16.6,30.40,West,270,0.0,5.8,72,0.00,,,0.04,WUHU216HW,2013-12-12 00:52:00,
2013-12-11 19:57:00,24.0,16.3,30.41,WNW,293,0.0,5.8,72,0.00,,,0.04,WUHU216HW,2013-12-12 00:57:00,
2013-12-11 20:02:00,23.9,16.1,30.41,NW,315,8.2,8.2,72,0.00,,,0.04,WUHU216HW,2013-12-12 01:02:00,
2013-12-11 20:07:00,23.7,15.9,30.42,West,270,7.1,8.2,72,0.00,,,0.04,WUHU216HW,2013-12-12 01:07:00,
2013-12-11 20:12:00,23.3,15.6,30.42,WSW,248,3.8,8.2,72,0.00,,,0.04,WUHU216HW,2013-12-12 01:12:00,
2013-12-11 20:17:00,23.1,15.4,30.42,WSW,248,6.4,6.4,72,0.00,,,0.04,WUHU216HW,2013-12-12 01:17:00,
2013-12-11 20:22:00,23.0,15.3,30.42,SW,225,3.8,6.4,72,0.00,,,0.04,WUHU216HW,2013-12-12 01:22:00,
2013-12-11 20:27:00,23.0,15.3,30.42,West,270,2.9,6.4,72,0.00,,,0.04,WUHU216HW,2013-12-12 01:27:00,
2013-12-11 20:32:00,23.0,15.3,30.42,WSW,248,0.0,3.5,72,0.00,,,0.04,WUHU216HW,2013-12-12 01:32:00,
2013-12-11 20:37:00,22.8,15.1,30.42,NW,315,0.0,2.9,72,0.00,,,0.04,WUHU216HW,2013-12-12 01:37:00,
2013-12-11 20:42:00,22.8,15.1,30.42,SSW,203,3.3,5.8,72,0.00,,,0.04,WUHU216HW,2013-12-12 01:42:00,
2013-12-11 20:47:00,22.6,14.9,30.42,West,270,5.1,5.8,72,0.00,,,0.04,WUHU216HW,2013-12-12 01:47:00,
2013-12-11 20:52:00,22.4,14.7,30.42,West,270,0.0,5.1,72,0.00,,,0.04,WUHU216HW,2013-12-12 01:52:00,
2013-12-11 20:57:00,22.2,14.6,30.43,WNW,293,7.1,9.3,72,0.00,,,0.04,WUHU216HW,2013-12-12 01:57:00,
2013-12-11 21:02:00,22.1,14.4,30.43,West,270,4.6,9.3,72,0.00,,,0.04,WUHU216HW,2013-12-12 02:02:00,
2013-12-11 21:07:00,21.9,13.9,30.43,NW,315,0.0,7.1,71,0.00,,,0.04,WUHU216HW,2013-12-12 02:07:00,
2013-12-11 21:12:00,21.5,13.5,30.43,West,270,6.7,6.7,71,0.00,,,0.04,WUHU216HW,2013-12-12 02:12:00,
2013-12-11 21:17:00,21.3,13.4,30.43,West,270,0.0,6.7,71,0.00,,,0.04,WUHU216HW,2013-12-12 02:17:00,
2013-12-11 21:22:00,21.3,13.4,30.43,West,270,0.0,6.7,71,0.00,,,0.04,WUHU216HW,2013-12-12 02:22:00,
2013-12-11 21:27:00,21.0,13.0,30.43,WSW,248,0.0,0.0,71,0.00,,,0.04,WUHU216HW,2013-12-12 02:27:00,
2013-12-11 21:32:00,21.0,13.0,30.43,WSW,248,0.0,0.0,71,0.00,,,0.04,WUHU216HW,2013-12-12 02:32:00,
2013-12-11 21:37:00,20.8,12.5,30.44,West,270,0.0,0.0,70,0.00,,,0.04,WUHU216HW,2013-12-12 02:37:00,
2013-12-11 21:42:00,20.4,12.2,30.44,West,270,0.0,2.4,70,0.00,,,0.04,WUHU216HW,2013-12-12 02:42:00,
2013-12-11 21:47:00,20.4,12.2,30.44,West,270,0.0,2.4,70,0.00,,,0.04,WUHU216HW,2013-12-12 02:47:00,
2013-12-11 21:52:00,20.3,12.0,30.44,West,270,0.0,0.0,70,0.00,,,0.04,WUHU216HW,2013-12-12 02:52:00,
2013-12-11 21:57:00,19.9,11.9,30.45,West,270,0.0,0.0,71,0.00,,,0.04,WUHU216HW,2013-12-12 02:57:00,
2013-12-11 22:02:00,19.9,11.9,30.45,West,270,0.0,0.0,71,0.00,,,0.04,WUHU216HW,2013-12-12 03:02:00,
2013-12-11 22:07:00,19.5,11.6,30.45,West,270,0.0,0.0,71,0.00,,,0.04,WUHU216HW,2013-12-12 03:07:00,
2013-12-11 22:12:00,19.2,11.2,30.45,West,270,0.0,0.0,71,0.00,,,0.04,WUHU216HW,2013-12-12 03:12:00,
2013-12-11 22:17:00,19.2,11.2,30.45,West,270,0.0,0.0,71,0.00,,,0.04,WUHU216HW,2013-12-12 03:17:00,
2013-12-11 22:22:00,19.0,11.0,30.45,West,270,0.0,0.0,71,0.00,,,0.04,WUHU216HW,2013-12-12 03:22:00,
2013-12-11 22:27:00,18.6,10.7,30.45,West,270,0.0,0.0,71,0.00,,,0.04,WUHU216HW,2013-12-12 03:27:00,
2013-12-11 22:32:00,18.5,10.5,30.45,West,270,0.0,0.0,71,0.00,,,0.04,WUHU216HW,2013-12-12 03:32:00,
2013-12-11 22:37:00,18.3,10.4,30.45,West,270,0.0,0.0,71,0.00,,,0.04,WUHU216HW,2013-12-12 03:37:00,
2013-12-11 22:42:00,17.9,10.1,30.45,West,270,0.0,0.0,71,0.00,,,0.04,WUHU216HW,2013-12-12 03:42:00,
2013-12-11 22:47:00,17.7,9.9,30.45,West,270,0.0,0.0,71,0.00,,,0.04,WUHU216HW,2013-12-12 03:47:00,
2013-12-11 22:52:00,17.4,9.6,30.45,West,270,0.0,0.0,71,0.00,,,0.04,WUHU216HW,2013-12-12 03:52:00,
2013-12-11 22:57:00,16.8,9.0,30.45,West,270,0.0,0.0,71,0.00,,,0.04,WUHU216HW,2013-12-12 03:57:00,
2013-12-11 23:02:00,16.7,8.8,30.45,West,270,0.0,0.0,71,0.00,,,0.04,WUHU216HW,2013-12-12 04:02:00,
2013-12-11 23:07:00,16.3,8.5,30.45,West,270,0.0,0.0,71,0.00,,,0.04,WUHU216HW,2013-12-12 04:07:00,
2013-12-11 23:12:00,16.3,8.5,30.45,West,270,0.0,0.0,71,0.00,,,0.04,WUHU216HW,2013-12-12 04:12:00,
2013-12-11 23:17:00,15.9,8.1,30.45,West,270,0.0,0.0,71,0.00,,,0.04,WUHU216HW,2013-12-12 04:17:00,
2013-12-11 23:22:00,15.8,8.3,30.45,West,270,0.0,0.0,72,0.00,,,0.04,WUHU216HW,2013-12-12 04:22:00,
2013-12-11 23:27:00,15.6,8.1,30.45,West,270,0.0,0.0,72,0.00,,,0.04,WUHU216HW,2013-12-12 04:27:00,
2013-12-11 23:32:00,15.2,7.8,30.46,West,270,0.0,0.0,72,0.00,,,0.04,WUHU216HW,2013-12-12 04:32:00,
2013-12-11 23:37:00,14.5,7.1,30.46,West,270,0.0,0.0,72,0.00,,,0.04,WUHU216HW,2013-12-12 04:37:00,
2013-12-11 23:42:00,14.1,6.8,30.46,West,270,0.0,0.0,72,0.00,,,0.04,WUHU216HW,2013-12-12 04:42:00,
2013-12-11 23:47:00,14.1,6.8,30.46,West,270,0.0,0.0,72,0.00,,,0.04,WUHU216HW,2013-12-12 04:47:00,
2013-12-11 23:52:00,13.8,6.4,30.47,West,270,0.0,0.0,72,0.00,,,0.04,WUHU216HW,2013-12-12 04:52:00,
2013-12-11 23:57:00,13.6,6.2,30.47,West,270,0.0,0.0,72,0.00,,,0.04,WUHU216HW,2013-12-12 04:57:00,